Location: Unspecified
(0.0000°N, 0.0000°E)
Time: 13:17:02
(UTC+00:00)

SL-12 DEB - Pass Details

Date: 02 May 2025
Orbit: 905 x 18020 km, 65.1° (Epoch: 09 July)

Event Time Altitude Azimuth Distance (km) Brightness Sun altitude
Rises 20:25:30 0° 337° (NNW) 23,002 ? -35.5°
Reaches altitude 10° 20:58:17 10° 335° (NNW) 22,501 ? -43.2°
Maximum altitude 22:53:57 41° 273° (W) 9,636 ? -67.9°
Enters shadow 23:11:08 30° 228° (SW) 6,785 ? -70.7°
